Location: Kudlacze
(49.7800°N, 20.0200°E)
Time: 12:27:06
(UTC+00:00)

Envisat - Pass Details

Date: 03 October 2021
Orbit: 764 x 766 km, 98.2° (Epoch: 20 October)

Event Time Altitude Azimuth Distance (km) Brightness Sun altitude
Rises 02:19:00 0° 31° (NNE) 3,242 7.1 -23.5°
Reaches altitude 10° 02:22:46 10° 59° (ENE) 2,309 6.6 -23.0°
Maximum altitude 02:24:58 13° 85° (E) 2,120 6.2 -22.7°
Drops below altitude 10° 02:27:10 10° 111° (ESE) 2,301 6.1 -22.3°
Sets 02:30:54 0° 140° (SE) 3,220 6.5 -21.8°
